Time,TemperatureF,DewpointF,PressureIn,WindDirection,WindDirectionDegrees,WindSpeedMPH,WindSpeedGustMPH,Humidity,HourlyPrecipIn,Conditions,Clouds,dailyrainin,SoftwareType,DateUTC
2013-02-28 00:01:00,34.4,29.0,29.77,ENE,78,4.0,15.0,82,0.00,,,0.15,weatherlink.com 1.10,2013-02-28 05:01:00,
2013-02-28 00:16:00,34.6,29.0,29.76,ENE,61,5.0,11.0,81,0.01,,,0.16,weatherlink.com 1.10,2013-02-28 05:16:00,
2013-02-28 00:31:00,34.4,29.0,29.76,East,84,7.0,9.0,82,0.01,,,0.16,weatherlink.com 1.10,2013-02-28 05:31:00,
2013-02-28 00:46:00,33.6,30.0,29.76,ESE,115,5.0,7.0,86,0.01,,,0.16,weatherlink.com 1.10,2013-02-28 05:46:00,
2013-02-28 01:01:00,32.8,30.0,29.76,ENE,70,7.0,10.0,89,0.01,,,0.16,weatherlink.com 1.10,2013-02-28 06:01:00,
2013-02-28 01:16:00,32.0,30.0,29.76,ESE,117,1.0,9.0,91,0.00,,,0.16,weatherlink.com 1.10,2013-02-28 06:16:00,
2013-02-28 01:31:00,31.4,29.0,29.76,ESE,110,1.0,9.0,92,0.00,,,0.16,weatherlink.com 1.10,2013-02-28 06:31:00,
2013-02-28 01:46:00,30.9,29.0,29.76,East,88,3.0,8.0,93,0.00,,,0.16,weatherlink.com 1.10,2013-02-28 06:46:00,
2013-02-28 02:01:00,30.4,28.0,29.76,East,100,6.0,11.0,92,0.00,,,0.00,weatherlink.com 1.10,2013-02-28 07:01:00,
2013-02-28 02:16:00,30.2,27.0,29.75,East,98,1.0,10.0,89,0.00,,,0.00,weatherlink.com 1.10,2013-02-28 07:16:00,
2013-02-28 02:31:00,30.3,27.0,29.76,SE,134,3.0,11.0,88,0.00,,,0.00,weatherlink.com 1.10,2013-02-28 07:31:00,
2013-02-28 02:46:00,30.1,27.0,29.75,East,84,3.0,11.0,89,0.00,,,0.00,weatherlink.com 1.10,2013-02-28 07:46:00,
2013-02-28 03:01:00,30.0,27.0,29.75,ESE,105,2.0,8.0,89,0.00,,,0.00,weatherlink.com 1.10,2013-02-28 08:01:00,
2013-02-28 03:16:00,30.1,27.0,29.74,ESE,105,0.0,3.0,88,0.00,,,0.00,weatherlink.com 1.10,2013-02-28 08:16:00,
2013-02-28 03:31:00,30.2,27.0,29.74,ESE,104,0.0,3.0,88,0.00,,,0.00,weatherlink.com 1.10,2013-02-28 08:31:00,
2013-02-28 03:46:00,30.4,27.0,29.73,East,84,1.0,10.0,87,0.00,,,0.00,weatherlink.com 1.10,2013-02-28 08:46:00,
2013-02-28 04:01:00,30.6,26.0,29.73,SE,127,2.0,9.0,84,0.01,,,0.01,weatherlink.com 1.10,2013-02-28 09:01:00,
2013-02-28 04:16:00,30.8,26.0,29.73,ENE,62,5.0,9.0,83,0.01,,,0.01,weatherlink.com 1.10,2013-02-28 09:16:00,
2013-02-28 04:31:00,30.8,27.0,29.74,ESE,116,1.0,10.0,84,0.01,,,0.01,weatherlink.com 1.10,2013-02-28 09:31:00,
2013-02-28 04:46:00,30.7,27.0,29.73,East,100,3.0,6.0,85,0.01,,,0.01,weatherlink.com 1.10,2013-02-28 09:46:00,
2013-02-28 05:01:00,30.7,26.0,29.73,East,98,0.0,6.0,84,0.00,,,0.01,weatherlink.com 1.10,2013-02-28 10:01:00,
2013-02-28 05:16:00,30.2,27.0,29.75,SE,135,3.0,13.0,87,0.00,,,0.01,weatherlink.com 1.10,2013-02-28 10:16:00,
2013-02-28 05:32:00,29.3,26.0,29.75,SE,124,3.0,10.0,87,0.00,,,0.01,weatherlink.com 1.10,2013-02-28 10:32:00,
2013-02-28 05:47:00,29.1,26.0,29.76,SE,141,3.0,8.0,87,0.00,,,0.01,weatherlink.com 1.10,2013-02-28 10:47:00,
2013-02-28 06:02:00,29.2,25.0,29.76,ESE,120,3.0,7.0,85,0.00,,,0.01,weatherlink.com 1.10,2013-02-28 11:02:00,
2013-02-28 06:17:00,29.4,25.0,29.76,ESE,114,2.0,5.0,83,0.00,,,0.01,weatherlink.com 1.10,2013-02-28 11:17:00,
2013-02-28 06:32:00,29.4,25.0,29.76,ESE,107,1.0,7.0,83,0.00,,,0.01,weatherlink.com 1.10,2013-02-28 11:32:00,
2013-02-28 06:47:00,29.1,24.0,29.76,ENE,78,4.0,11.0,82,0.00,,,0.01,weatherlink.com 1.10,2013-02-28 11:47:00,
2013-02-28 07:02:00,28.9,25.0,29.76,East,80,2.0,9.0,84,0.00,,,0.01,weatherlink.com 1.10,2013-02-28 12:02:00,
2013-02-28 07:17:00,28.8,25.0,29.76,East,97,6.0,11.0,84,0.00,,,0.01,weatherlink.com 1.10,2013-02-28 12:17:00,
2013-02-28 07:32:00,28.8,24.0,29.77,ESE,103,5.0,11.0,82,0.00,,,0.01,weatherlink.com 1.10,2013-02-28 12:32:00,
2013-02-28 07:47:00,28.9,24.0,29.78,SE,136,1.0,8.0,82,0.00,,,0.01,weatherlink.com 1.10,2013-02-28 12:47:00,
2013-02-28 08:02:00,29.0,24.0,29.78,East,96,2.0,13.0,80,0.00,,,0.01,weatherlink.com 1.10,2013-02-28 13:02:00,
2013-02-28 08:17:00,29.2,24.0,29.77,East,96,2.0,9.0,80,0.00,,,0.01,weatherlink.com 1.10,2013-02-28 13:17:00,
2013-02-28 08:32:00,29.2,24.0,29.78,NE,49,7.0,14.0,81,0.00,,,0.01,weatherlink.com 1.10,2013-02-28 13:32:00,
2013-02-28 08:47:00,29.0,25.0,29.78,ESE,123,2.0,9.0,83,0.00,,,0.01,weatherlink.com 1.10,2013-02-28 13:47:00,
2013-02-28 09:02:00,28.8,25.0,29.79,ESE,118,3.0,9.0,86,0.00,,,0.01,weatherlink.com 1.10,2013-02-28 14:02:00,
2013-02-28 09:17:00,28.7,25.0,29.80,South,176,0.0,3.0,87,0.00,,,0.01,weatherlink.com 1.10,2013-02-28 14:17:00,
2013-02-28 09:32:00,28.9,25.0,29.80,ESE,120,1.0,5.0,86,0.00,,,0.01,weatherlink.com 1.10,2013-02-28 14:32:00,
2013-02-28 09:47:00,29.2,26.0,29.80,SSE,148,0.0,9.0,86,0.00,,,0.01,weatherlink.com 1.10,2013-02-28 14:47:00,
2013-02-28 10:02:00,29.6,26.0,29.80,ESE,114,1.0,4.0,85,0.00,,,0.01,weatherlink.com 1.10,2013-02-28 15:02:00,
2013-02-28 10:17:00,29.7,26.0,29.81,ESE,120,0.0,7.0,85,0.00,,,0.01,weatherlink.com 1.10,2013-02-28 15:17:00,
2013-02-28 10:32:00,29.2,26.0,29.81,East,101,2.0,9.0,86,0.00,,,0.01,weatherlink.com 1.10,2013-02-28 15:32:00,
2013-02-28 10:47:00,29.2,26.0,29.82,ESE,117,8.0,15.0,86,0.00,,,0.01,weatherlink.com 1.10,2013-02-28 15:47:00,
2013-02-28 11:02:00,29.4,26.0,29.82,ESE,122,0.0,9.0,85,0.00,,,0.01,weatherlink.com 1.10,2013-02-28 16:02:00,
2013-02-28 11:17:00,29.1,25.0,29.83,ESE,104,4.0,16.0,85,0.00,,,0.01,weatherlink.com 1.10,2013-02-28 16:17:00,
2013-02-28 11:32:00,29.1,25.0,29.83,East,88,3.0,13.0,84,0.00,,,0.01,weatherlink.com 1.10,2013-02-28 16:32:00,
2013-02-28 11:47:00,28.9,25.0,29.84,ENE,67,1.0,10.0,84,0.00,,,0.01,weatherlink.com 1.10,2013-02-28 16:47:00,
2013-02-28 12:17:00,29.2,25.0,29.83,ENE,70,5.0,11.0,83,0.00,,,0.01,weatherlink.com 1.10,2013-02-28 17:17:00,
2013-02-28 12:32:00,29.2,24.0,29.84,NNE,33,8.0,8.0,82,0.00,,,0.01,weatherlink.com 1.10,2013-02-28 17:32:00,
2013-02-28 12:47:00,29.5,24.0,29.84,ESE,104,2.0,15.0,80,0.00,,,0.01,weatherlink.com 1.10,2013-02-28 17:47:00,
2013-02-28 13:02:00,29.7,24.0,29.84,ESE,114,1.0,9.0,80,0.00,,,0.01,weatherlink.com 1.10,2013-02-28 18:02:00,
2013-02-28 13:17:00,30.4,24.0,29.83,ESE,117,2.0,9.0,77,0.00,,,0.01,weatherlink.com 1.10,2013-02-28 18:17:00,
2013-02-28 13:32:00,30.5,24.0,29.83,ESE,113,1.0,14.0,77,0.01,,,0.02,weatherlink.com 1.10,2013-02-28 18:32:00,
2013-02-28 13:47:00,30.2,24.0,29.83,ESE,115,1.0,9.0,77,0.01,,,0.02,weatherlink.com 1.10,2013-02-28 18:47:00,
2013-02-28 14:02:00,30.1,24.0,29.84,East,101,3.0,9.0,77,0.02,,,0.03,weatherlink.com 1.10,2013-02-28 19:02:00,
2013-02-28 14:17:00,30.1,24.0,29.84,East,85,2.0,12.0,78,0.02,,,0.03,weatherlink.com 1.10,2013-02-28 19:17:00,
2013-02-28 14:32:00,30.2,24.0,29.84,ESE,116,2.0,10.0,79,0.01,,,0.03,weatherlink.com 1.10,2013-02-28 19:32:00,
2013-02-28 14:47:00,30.1,24.0,29.84,ESE,106,2.0,10.0,79,0.01,,,0.03,weatherlink.com 1.10,2013-02-28 19:47:00,
2013-02-28 15:02:00,30.1,24.0,29.85,SE,128,5.0,11.0,79,0.00,,,0.03,weatherlink.com 1.10,2013-02-28 20:02:00,
2013-02-28 15:17:00,30.3,25.0,29.85,East,80,7.0,9.0,79,0.00,,,0.03,weatherlink.com 1.10,2013-02-28 20:17:00,
2013-02-28 15:32:00,30.5,24.0,29.85,East,87,5.0,9.0,78,0.00,,,0.03,weatherlink.com 1.10,2013-02-28 20:32:00,
2013-02-28 15:47:00,30.5,24.0,29.86,East,100,2.0,11.0,77,0.00,,,0.03,weatherlink.com 1.10,2013-02-28 20:47:00,
2013-02-28 16:02:00,30.6,24.0,29.86,East,98,2.0,6.0,76,0.00,,,0.03,weatherlink.com 1.10,2013-02-28 21:02:00,
2013-02-28 16:18:00,30.5,23.0,29.87,SE,129,1.0,11.0,75,0.01,,,0.04,weatherlink.com 1.10,2013-02-28 21:18:00,
2013-02-28 16:33:00,30.3,24.0,29.87,ESE,118,4.0,11.0,76,0.01,,,0.04,weatherlink.com 1.10,2013-02-28 21:33:00,
2013-02-28 16:48:00,30.2,24.0,29.87,East,94,2.0,8.0,77,0.01,,,0.04,weatherlink.com 1.10,2013-02-28 21:48:00,
2013-02-28 17:03:00,30.4,24.0,29.88,East,80,6.0,10.0,76,0.01,,,0.04,weatherlink.com 1.10,2013-02-28 22:03:00,
2013-02-28 17:18:00,30.4,23.0,29.89,ESE,123,3.0,11.0,75,0.00,,,0.04,weatherlink.com 1.10,2013-02-28 22:18:00,
2013-02-28 17:33:00,30.2,24.0,29.90,NE,41,6.0,13.0,76,0.00,,,0.04,weatherlink.com 1.10,2013-02-28 22:33:00,
2013-02-28 17:48:00,30.1,24.0,29.91,ESE,113,3.0,8.0,77,0.00,,,0.04,weatherlink.com 1.10,2013-02-28 22:48:00,
2013-02-28 18:03:00,29.8,23.0,29.91,ENE,59,8.0,9.0,77,0.00,,,0.04,weatherlink.com 1.10,2013-02-28 23:03:00,
2013-02-28 18:18:00,29.6,24.0,29.91,ENE,70,2.0,9.0,78,0.00,,,0.04,weatherlink.com 1.10,2013-02-28 23:18:00,
2013-02-28 18:33:00,29.4,23.0,29.91,East,100,5.0,10.0,78,0.00,,,0.04,weatherlink.com 1.10,2013-02-28 23:33:00,
2013-02-28 18:48:00,29.3,24.0,29.92,ESE,113,3.0,9.0,79,0.00,,,0.04,weatherlink.com 1.10,2013-02-28 23:48:00,
2013-02-28 19:03:00,29.1,23.0,29.92,ESE,105,5.0,14.0,79,0.00,,,0.04,weatherlink.com 1.10,2013-03-01 00:03:00,
2013-02-28 19:18:00,28.9,23.0,29.93,ENE,73,10.0,13.0,80,0.00,,,0.04,weatherlink.com 1.10,2013-03-01 00:18:00,
2013-02-28 19:33:00,28.8,23.0,29.93,ENE,75,8.0,13.0,80,0.00,,,0.04,weatherlink.com 1.10,2013-03-01 00:33:00,
2013-02-28 19:48:00,28.6,24.0,29.93,ESE,108,7.0,11.0,81,0.00,,,0.04,weatherlink.com 1.10,2013-03-01 00:48:00,
2013-02-28 20:03:00,28.6,24.0,29.93,ENE,61,9.0,10.0,81,0.00,,,0.04,weatherlink.com 1.10,2013-03-01 01:03:00,
2013-02-28 20:18:00,28.5,23.0,29.92,East,92,5.0,15.0,81,0.00,,,0.04,weatherlink.com 1.10,2013-03-01 01:18:00,
2013-02-28 20:33:00,28.5,24.0,29.92,East,83,5.0,14.0,82,0.00,,,0.04,weatherlink.com 1.10,2013-03-01 01:33:00,
2013-02-28 20:48:00,28.4,24.0,29.92,SE,137,4.0,13.0,83,0.00,,,0.04,weatherlink.com 1.10,2013-03-01 01:48:00,
2013-02-28 21:03:00,28.3,24.0,29.92,ESE,107,4.0,15.0,83,0.00,,,0.04,weatherlink.com 1.10,2013-03-01 02:03:00,
2013-02-28 21:18:00,28.1,24.0,29.92,SE,130,4.0,15.0,84,0.00,,,0.04,weatherlink.com 1.10,2013-03-01 02:18:00,
2013-02-28 21:33:00,28.1,24.0,29.92,East,84,6.0,19.0,85,0.00,,,0.04,weatherlink.com 1.10,2013-03-01 02:33:00,
2013-02-28 21:48:00,28.1,24.0,29.93,ESE,119,4.0,13.0,85,0.00,,,0.04,weatherlink.com 1.10,2013-03-01 02:48:00,
2013-02-28 22:03:00,28.1,24.0,29.93,ESE,108,5.0,10.0,85,0.00,,,0.04,weatherlink.com 1.10,2013-03-01 03:03:00,
2013-02-28 22:18:00,28.0,24.0,29.93,East,88,7.0,13.0,86,0.00,,,0.04,weatherlink.com 1.10,2013-03-01 03:18:00,
2013-02-28 22:33:00,27.9,24.0,29.93,East,90,2.0,19.0,86,0.00,,,0.04,weatherlink.com 1.10,2013-03-01 03:33:00,
2013-02-28 22:48:00,27.9,25.0,29.93,ENE,64,10.0,15.0,87,0.00,,,0.04,weatherlink.com 1.10,2013-03-01 03:48:00,
2013-02-28 23:03:00,27.7,25.0,29.93,East,80,9.0,17.0,88,0.00,,,0.04,weatherlink.com 1.10,2013-03-01 04:03:00,
2013-02-28 23:18:00,27.6,25.0,29.94,ENE,74,4.0,12.0,89,0.00,,,0.04,weatherlink.com 1.10,2013-03-01 04:18:00,
2013-02-28 23:33:00,27.5,25.0,29.94,ENE,68,3.0,14.0,89,0.00,,,0.04,weatherlink.com 1.10,2013-03-01 04:33:00,
2013-02-28 23:48:00,27.4,25.0,29.93,ESE,104,3.0,10.0,90,0.00,,,0.04,weatherlink.com 1.10,2013-03-01 04:48:00,